| time (UTC) | temp F | wind direction | speed MPH | gust MPH | rain 1hr in | rain 24hr in | rain mn in | humidity % | barometer mb |
| 20260504204530 | 83 | 145 | 4.0 | 10.0 | 0.00 | 0.00 | 0.00 | 23 | 911.8 |
| 20260504203032 | 83 | 123 | 2.0 | 9.0 | 0.00 | 0.00 | 0.00 | 22 | 911.9 |
| 20260504201528 | 83 | 74 | 4.0 | 10.0 | 0.00 | 0.00 | 0.00 | 22 | 911.9 |
| 20260504200037 | 83 | 82 | 7.0 | 15.0 | 0.00 | 0.00 | 0.00 | 22 | 912.1 |
| 20260504194524 | 82 | 58 | 4.0 | 12.0 | 0.00 | 0.00 | 0.00 | 20 | 912.3 |
| 20260504193022 | 83 | 79 | 4.0 | 11.0 | 0.00 | 0.00 | 0.00 | 23 | 912.6 |
| 20260504191530 | 82 | 355 | 2.0 | 10.0 | 0.00 | 0.00 | 0.00 | 22 | 912.7 |
| 20260504190016 | 81 | 73 | 4.0 | 11.0 | 0.00 | 0.00 | 0.00 | 23 | 912.9 |
| 20260504184516 | 82 | 5 | 3.0 | 12.0 | 0.00 | 0.00 | 0.00 | 24 | 913.0 |
| 20260504183033 | 81 | 69 | 6.0 | 13.0 | 0.00 | 0.00 | 0.00 | 25 | 913.2 |
| 20260504181522 | 82 | 5 | 1.0 | 11.0 | 0.00 | 0.00 | 0.00 | 28 | 913.3 |
| 20260504180014 | 81 | 61 | 3.0 | 9.0 | 0.00 | 0.00 | 0.00 | 25 | 913.4 |
| 20260504174515 | 80 | 5 | 2.0 | 9.0 | 0.00 | 0.00 | 0.00 | 27 | 913.7 |
| 20260504173007 | 80 | 51 | 2.0 | 8.0 | 0.00 | 0.00 | 0.00 | 29 | 913.6 |
| 20260504171502 | 78 | 360 | 3.0 | 8.0 | 0.00 | 0.00 | 0.00 | 31 | 913.7 |
| 20260504170109 | 77 | 355 | 5.0 | 12.0 | 0.00 | 0.00 | 0.00 | 32 | 913.8 |
| 20260504100103 | 46 | 285 | 2.0 | 7.0 | 0.00 | 0.00 | 0.00 | 72 | 913.5 |
| 20260504081541 | 51 | 294 | 4.0 | 7.0 | 0.00 | 0.00 | 0.00 | 63 | 913.8 |
| 20260504050002 | 62 | 80 | 8.0 | 15.0 | 0.00 | 0.00 | 0.00 | 46 | 914.9 |
| 20260504044504 | 62 | 70 | 9.0 | 14.0 | 0.00 | 0.00 | 0.00 | 45 | 915.1 |
| 20260504043102 | 63 | 60 | 8.0 | 16.0 | 0.00 | 0.00 | 0.00 | 45 | 915.1 |
| 20260504041601 | 63 | 75 | 11.0 | 17.0 | 0.00 | 0.00 | 0.00 | 44 | 915.3 |
| 20260504040105 | 63 | 78 | 10.0 | 14.0 | 0.00 | 0.00 | 0.00 | 45 | 915.4 |
| 20260504034610 | 63 | 74 | 4.0 | 11.0 | 0.00 | 0.00 | 0.00 | 45 | 915.6 |
| 20260504033127 | 63 | 53 | 6.0 | 10.0 | 0.00 | 0.00 | 0.00 | 44 | 915.7 |
| 20260504031603 | 64 | 56 | 5.0 | 12.0 | 0.00 | 0.00 | 0.00 | 44 | 915.7 |
| 20260504030101 | 64 | 53 | 7.0 | 12.0 | 0.00 | 0.00 | 0.00 | 43 | 915.8 |
| 20260504024556 | 65 | 50 | 6.0 | 10.0 | 0.00 | 0.00 | 0.00 | 41 | 915.8 |
| 20260504023103 | 67 | 65 | 10.0 | 15.0 | 0.00 | 0.00 | 0.00 | 39 | 915.8 |
| 20260504021556 | 68 | 51 | 3.0 | 11.0 | 0.00 | 0.00 | 0.00 | 39 | 915.7 |
| 20260504020155 | 70 | 49 | 5.0 | 10.0 | 0.00 | 0.00 | 0.00 | 38 | 915.6 |
| 20260504014554 | 72 | 74 | 4.0 | 11.0 | 0.00 | 0.00 | 0.00 | 35 | 915.6 |
| 20260504013106 | 73 | 48 | 5.0 | 11.0 | 0.00 | 0.00 | 0.00 | 33 | 915.5 |
| 20260504011553 | 74 | 34 | 3.0 | 9.0 | 0.00 | 0.00 | 0.00 | 32 | 915.3 |
| 20260504010104 | 75 | 28 | 2.0 | 9.0 | 0.00 | 0.00 | 0.00 | 32 | 915.3 |
| 20260504004607 | 77 | 15 | 2.0 | 8.0 | 0.00 | 0.00 | 0.00 | 28 | 915.1 |
| 20260504003051 | 79 | 19 | 2.0 | 6.0 | 0.00 | 0.00 | 0.00 | 24 | 914.8 |
| 20260504001554 | 80 | 15 | 3.0 | 9.0 | 0.00 | 0.00 | 0.00 | 22 | 914.8 |
| 20260504000049 | 81 | 24 | 5.0 | 13.0 | 0.00 | 0.00 | 0.00 | 19 | 914.8 |
| 20260503234548 | 82 | 242 | 3.0 | 7.0 | 0.00 | 0.00 | 0.00 | 20 | 914.9 |
| 20260503233050 | 82 | 190 | 4.0 | 7.0 | 0.00 | 0.00 | 0.00 | 17 | 914.9 |
| 20260503231547 | 82 | 205 | 5.0 | 10.0 | 0.00 | 0.00 | 0.00 | 15 | 915.0 |
| 20260503230052 | 83 | 178 | 5.0 | 11.0 | 0.00 | 0.00 | 0.00 | 13 | 915.0 |
| 20260503224545 | 84 | 192 | 6.0 | 14.0 | 0.00 | 0.00 | 0.00 | 13 | 915.1 |
| 20260503223048 | 84 | 209 | 2.0 | 15.0 | 0.00 | 0.00 | 0.00 | 13 | 915.2 |
| 20260503221544 | 85 | 161 | 8.0 | 14.0 | 0.00 | 0.00 | 0.00 | 11 | 915.4 |
| 20260503220041 | 86 | 195 | 6.0 | 16.0 | 0.00 | 0.00 | 0.00 | 11 | 915.5 |
| 20260503214539 | 86 | 196 | 6.0 | 14.0 | 0.00 | 0.00 | 0.00 | 10 | 915.7 |
| 20260503213051 | 86 | 148 | 7.0 | 17.0 | 0.00 | 0.00 | 0.00 | 9 | 916.1 |
| 20260503211535 | 85 | 194 | 8.0 | 16.0 | 0.00 | 0.00 | 0.00 | 9 | 916.4 |
| 20260503210032 | 86 | 192 | 8.0 | 16.0 | 0.00 | 0.00 | 0.00 | 10 | 916.5 |